TimeMST,TemperatureF,Dew PointF,Humidity,Sea Level PressureIn,VisibilityMPH,Wind Direction,Wind SpeedMPH,Gust SpeedMPH,PrecipitationIn,Events,Conditions,WindDirDegrees,DateUTC
12:53 AM,19.9,15.1,81,30.36,10.0,Calm,Calm,-,N/A,,Overcast,0,2013-01-21 07:53:00
1:53 AM,19.9,15.1,81,30.34,10.0,ENE,3.5,-,N/A,,Overcast,60,2013-01-21 08:53:00
2:53 AM,19.9,15.1,81,30.34,10.0,Calm,Calm,-,N/A,,Overcast,0,2013-01-21 09:53:00
3:20 AM,19.4,15.8,86,30.15,10.0,Calm,Calm,-,N/A,,Overcast,0,2013-01-21 10:20:00
3:53 AM,18.0,15.1,88,30.32,10.0,NE,6.9,-,N/A,,Mostly Cloudy,40,2013-01-21 10:53:00
4:53 AM,15.1,12.9,91,30.36,10.0,WNW,6.9,-,N/A,,Partly Cloudy,290,2013-01-21 11:53:00
5:53 AM,15.1,12.0,88,30.33,10.0,South,5.8,-,N/A,,Clear,180,2013-01-21 12:53:00
6:53 AM,15.1,12.0,88,30.31,10.0,Calm,Calm,-,N/A,,Mostly Cloudy,0,2013-01-21 13:53:00
7:53 AM,17.1,14.0,88,30.28,10.0,Calm,Calm,-,N/A,,Overcast,0,2013-01-21 14:53:00
8:53 AM,18.0,15.1,88,30.29,10.0,NNE,4.6,-,N/A,,Overcast,20,2013-01-21 15:53:00
9:53 AM,21.0,16.0,81,30.32,10.0,NNW,3.5,-,N/A,,Mostly Cloudy,340,2013-01-21 16:53:00
10:53 AM,24.1,17.1,75,30.27,10.0,Calm,Calm,-,N/A,,Clear,0,2013-01-21 17:53:00
11:53 AM,30.0,19.0,64,30.19,10.0,South,5.8,-,N/A,,Clear,170,2013-01-21 18:53:00
12:53 PM,34.0,21.0,59,30.16,10.0,NNE,5.8,-,N/A,,Clear,20,2013-01-21 19:53:00
1:53 PM,36.0,21.0,55,30.14,10.0,NNE,6.9,-,N/A,,Partly Cloudy,30,2013-01-21 20:53:00
2:53 PM,35.1,21.0,57,30.13,10.0,ENE,4.6,-,N/A,,Partly Cloudy,70,2013-01-21 21:53:00
3:53 PM,36.0,19.9,52,30.12,10.0,NNE,3.5,-,N/A,,Clear,30,2013-01-21 22:53:00
4:53 PM,28.0,19.9,72,30.14,10.0,North,6.9,-,N/A,,Partly Cloudy,350,2013-01-21 23:53:00
5:53 PM,24.1,18.0,77,30.16,10.0,NNW,4.6,-,N/A,,Clear,340,2013-01-22 00:53:00
6:53 PM,21.9,17.1,82,30.16,10.0,SSW,5.8,-,N/A,,Clear,210,2013-01-22 01:53:00
7:53 PM,21.0,16.0,81,30.14,10.0,Calm,Calm,-,N/A,,Clear,0,2013-01-22 02:53:00
8:53 PM,19.9,15.1,81,30.14,10.0,Calm,Calm,-,N/A,,Clear,0,2013-01-22 03:53:00
9:53 PM,19.0,15.1,85,30.14,10.0,Calm,Calm,-,N/A,,Clear,0,2013-01-22 04:53:00
10:53 PM,18.0,14.0,84,30.13,10.0,Calm,Calm,-,N/A,,Clear,0,2013-01-22 05:53:00
11:53 PM,17.1,12.0,81,30.11,10.0,Calm,Calm,-,N/A,,Clear,0,2013-01-22 06:53:00